Regional Weather Roundup
Issued by NWS

Home | Current Version | Previous Version | Text Only | Print | Product List | Glossary Off
Versions: 1 2 3 4 5 6 7 8 9 10 11 12 13 14 15 16 17 18 19 20 21 22 23 24 25 26 27 28 29 30 31 32 33 34 35 36 37 38 39 40 41 42 43 44 45 46 47 48 49 50

000
ASUS43 KLMK 170202
RWRKY
KENTUCKY REGIONAL WEATHER ROUNDUP
NATIONAL WEATHER SERVICE LOUISVILLE KY
900 PM EST TUE JAN 16 2018

NOTE "FAIR" INDICATES FEW OR NO CLOUDS BELOW 12,000 FEET
WITH NO SIGNIFICANT WEATHER AND/OR OBSTRUCTIONS TO VISIBILITY.

KYZ001>023-026-027-061>063-070>075-170300-
WESTERN AND SOUTH CENTRAL KENTUCKY

CITY           SKY/WX    TMP DP  RH WIND       PRES   REMARKS
PADUCAH        CLOUDY    11   1  64 N5        30.68R WCI   3
HENDERSON      FLURRIES   8   2  76 W9        30.68R WCI  -5
OWENSBORO      FLURRIES   7   1  76 W3        30.67R
HOPKINSVILLE   MOCLDY     3  -4  70 N5        30.63S WCI  -6
BOWLING GREEN  FAIR       6  -2  69 N5        30.64R WCI  -3
GLASGOW        NOT AVBL
$$

KYZ024-025-028>034-038-045-046-053-170300-
NORTH CENTRAL KENTUCKY

CITY           SKY/WX    TMP DP  RH WIND       PRES   REMARKS
LOUISVILLE/SDF CLOUDY     8   0  69 W13       30.62R WCI  -8
LOUISVILLE/LOU CLOUDY     9   0  67 NW7       30.62R WCI  -2
FORT KNOX      FLURRIES   6  -2  70 W7        30.58R WCI  -6
$$

KYZ035>037-039>044-047>052-055>060-089>105-170300-
NORTHEAST KENTUCKY

CITY           SKY/WX    TMP DP  RH WIND       PRES   REMARKS
LEXINGTON      CLOUDY     5  -2  72 CALM      30.55R
COVINGTON      CLOUDY     8   2  76 W9        30.54R WCI  -5
FRANKFORT      CLOUDY     9  -1  64 CALM      30.56R
$$

KYZ054-064>069-076>088-106>120-170300-
SOUTHEAST KENTUCKY

CITY           SKY/WX    TMP DP  RH WIND       PRES   REMARKS
JACKSON        CLOUDY     9   4  80 NW7       30.49R WCI  -2
LONDON         FAIR       6   1  80 N5        30.52R WCI  -3
SOMERSET       NOT AVBL
MIDDLESBORO    FLURRIES  16  11  80 NW10      30.50R WCI   3
MONTICELLO     FAIR       0  -3  87 NW6       30.58S WCI -12
$$




USA.gov is the U.S. government's official web portal to all federal, state and local government web resources and services.